Time,TemperatureF,DewpointF,PressureIn,WindDirection,WindDirectionDegrees,WindSpeedMPH,WindSpeedGustMPH,Humidity,HourlyPrecipIn,Conditions,Clouds,dailyrainin,SoftwareType,DateUTC
2013-05-22 00:00:00,67.8,56.5,29.50,East,90,0.0,0.0,67,0.00,RA,,0.00,WeatherDisplay:10.37,2013-05-22 05:00:00,
2013-05-22 00:05:00,67.8,56.5,29.50,East,90,0.0,0.0,67,0.00,RA,,0.00,WeatherDisplay:10.37,2013-05-22 05:05:00,
2013-05-22 00:10:00,67.8,56.5,29.50,East,90,0.0,0.0,67,0.00,BKN,,0.00,WeatherDisplay:10.37,2013-05-22 05:10:00,
2013-05-22 00:15:00,67.8,56.5,29.50,East,90,0.0,0.0,67,0.00,BKN,,0.00,WeatherDisplay:10.37,2013-05-22 05:15:00,
2013-05-22 00:20:00,67.8,56.5,29.50,East,83,0.0,0.0,67,0.00,BKN,,0.00,WeatherDisplay:10.37,2013-05-22 05:20:00,
2013-05-22 00:25:00,67.8,56.9,29.50,NE,45,0.0,0.0,68,0.00,BKN,,0.00,WeatherDisplay:10.37,2013-05-22 05:25:00,
2013-05-22 00:30:00,67.8,56.5,29.50,NNE,28,0.0,0.0,67,0.00,BKN,,0.00,WeatherDisplay:10.37,2013-05-22 05:30:00,
2013-05-22 00:35:00,67.8,56.5,29.50,NE,49,0.0,0.0,67,0.00,BKN,,0.00,WeatherDisplay:10.37,2013-05-22 05:35:00,
2013-05-22 00:40:00,67.6,56.3,29.50,ESE,108,2.0,3.0,67,0.00,BKN,,0.00,WeatherDisplay:10.37,2013-05-22 05:40:00,
2013-05-22 00:45:00,67.3,55.9,29.50,SE,126,0.0,3.0,67,0.00,BKN,,0.00,WeatherDisplay:10.37,2013-05-22 05:45:00,
2013-05-22 00:50:00,67.1,55.4,29.50,SE,145,1.0,3.0,66,0.00,BKN,,0.00,WeatherDisplay:10.37,2013-05-22 05:50:00,
2013-05-22 00:55:00,66.9,55.2,29.50,SSE,154,1.0,2.0,66,0.00,BKN,,0.00,WeatherDisplay:10.37,2013-05-22 05:55:00,
2013-05-22 01:00:00,66.9,55.2,29.50,SSE,150,1.0,2.0,66,0.00,BKN,,0.00,WeatherDisplay:10.37,2013-05-22 06:00:00,
2013-05-22 01:05:00,66.7,55.4,29.50,SE,145,0.0,1.0,67,0.00,OVC,,0.00,WeatherDisplay:10.37,2013-05-22 06:05:00,
2013-05-22 01:10:00,66.7,55.4,29.50,SSE,147,0.0,1.0,67,0.00,OVC,,0.00,WeatherDisplay:10.37,2013-05-22 06:10:00,
2013-05-22 01:15:00,66.7,55.8,29.50,SSE,157,2.0,3.0,68,0.00,OVC,,0.00,WeatherDisplay:10.37,2013-05-22 06:15:00,
2013-05-22 01:20:00,66.9,56.0,29.50,SSE,148,1.0,3.0,68,0.00,OVC,,0.00,WeatherDisplay:10.37,2013-05-22 06:20:00,
2013-05-22 01:25:00,66.9,56.0,29.50,SSE,148,0.0,0.0,68,0.00,OVC,,0.00,WeatherDisplay:10.37,2013-05-22 06:25:00,
2013-05-22 01:30:00,66.9,56.4,29.50,SSE,154,1.0,1.0,69,0.00,OVC,,0.00,WeatherDisplay:10.37,2013-05-22 06:30:00,
2013-05-22 01:35:00,66.8,56.3,29.49,SE,139,0.0,1.0,69,0.00,OVC,,0.00,WeatherDisplay:10.37,2013-05-22 06:35:00,
2013-05-22 01:40:00,66.7,56.6,29.49,ESE,120,0.0,0.0,70,0.00,OVC,,0.00,WeatherDisplay:10.37,2013-05-22 06:40:00,
2013-05-22 01:45:00,66.7,56.6,29.49,ESE,115,0.0,0.0,70,0.00,OVC,,0.00,WeatherDisplay:10.37,2013-05-22 06:45:00,
2013-05-22 01:50:00,66.6,56.6,29.49,East,91,0.0,0.0,70,0.00,OVC,,0.00,WeatherDisplay:10.37,2013-05-22 06:50:00,
2013-05-22 01:55:00,66.4,56.7,29.48,NE,54,0.0,0.0,71,0.00,OVC,,0.00,WeatherDisplay:10.37,2013-05-22 06:55:00,
2013-05-22 02:00:00,66.2,56.5,29.48,NE,45,0.0,0.0,71,0.00,OVC,,0.00,WeatherDisplay:10.37,2013-05-22 07:00:00,
2013-05-22 02:05:00,66.0,56.3,29.48,NE,45,0.0,0.0,71,0.00,BKN,,0.00,WeatherDisplay:10.37,2013-05-22 07:05:00,
2013-05-22 02:10:00,66.0,56.3,29.48,NE,45,0.0,0.0,71,0.00,BKN,,0.00,WeatherDisplay:10.37,2013-05-22 07:10:00,
2013-05-22 02:15:00,65.8,56.1,29.49,East,83,1.0,2.0,71,0.00,BKN,,0.00,WeatherDisplay:10.37,2013-05-22 07:15:00,
2013-05-22 02:20:00,65.5,56.2,29.49,SSE,154,3.0,4.0,72,0.00,BKN,,0.00,WeatherDisplay:10.37,2013-05-22 07:20:00,
2013-05-22 02:25:00,65.5,57.0,29.49,SSE,158,5.0,6.0,74,0.00,BKN,,0.00,WeatherDisplay:10.37,2013-05-22 07:25:00,
2013-05-22 02:30:00,65.5,57.0,29.49,SE,146,6.0,6.0,74,0.00,BKN,,0.00,WeatherDisplay:10.37,2013-05-22 07:30:00,
2013-05-22 02:35:00,65.3,57.2,29.49,SSE,150,5.0,9.0,75,0.00,BKN,,0.00,WeatherDisplay:10.37,2013-05-22 07:35:00,
2013-05-22 02:40:00,65.3,57.5,29.49,SSE,151,3.0,9.0,76,0.00,BKN,,0.00,WeatherDisplay:10.37,2013-05-22 07:40:00,
2013-05-22 02:45:00,65.3,57.5,29.49,SSE,153,1.0,5.0,76,0.00,BKN,,0.00,WeatherDisplay:10.37,2013-05-22 07:45:00,
2013-05-22 02:50:00,65.1,57.7,29.48,SSE,162,3.0,6.0,77,0.00,BKN,,0.00,WeatherDisplay:10.37,2013-05-22 07:50:00,
2013-05-22 02:55:00,65.1,57.7,29.49,SSE,163,0.0,6.0,77,0.00,BKN,,0.00,WeatherDisplay:10.37,2013-05-22 07:55:00,
2013-05-22 03:00:00,65.1,57.7,29.49,SSE,166,0.0,0.0,77,0.00,BKN,,0.00,WeatherDisplay:10.37,2013-05-22 08:00:00,
2013-05-22 03:05:00,65.3,58.3,29.49,South,170,0.0,2.0,78,0.00,BKN,,0.00,WeatherDisplay:10.37,2013-05-22 08:05:00,
2013-05-22 03:10:00,65.3,58.3,29.49,SSE,167,1.0,2.0,78,0.00,BKN,,0.00,WeatherDisplay:10.37,2013-05-22 08:10:00,
2013-05-22 03:15:00,65.3,58.2,29.49,SSE,154,0.0,4.0,78,0.00,BKN,,0.00,WeatherDisplay:10.37,2013-05-22 08:15:00,
2013-05-22 03:20:00,65.1,58.1,29.49,South,187,7.0,8.0,78,0.00,BKN,,0.00,WeatherDisplay:10.37,2013-05-22 08:20:00,
2013-05-22 03:25:00,65.0,58.3,29.49,South,178,6.0,8.0,79,0.00,BKN,,0.00,WeatherDisplay:10.37,2013-05-22 08:25:00,
2013-05-22 03:30:00,64.7,58.1,29.49,SSE,166,2.0,6.0,79,0.00,BKN,,0.00,WeatherDisplay:10.37,2013-05-22 08:30:00,
2013-05-22 03:35:00,64.6,57.9,29.49,South,171,1.0,6.0,79,0.00,BKN,,0.00,WeatherDisplay:10.37,2013-05-22 08:35:00,
2013-05-22 03:40:00,64.2,57.9,29.48,South,174,1.0,3.0,80,0.00,BKN,,0.00,WeatherDisplay:10.37,2013-05-22 08:40:00,
2013-05-22 03:45:00,64.2,57.9,29.48,South,170,3.0,4.0,80,0.00,BKN,,0.00,WeatherDisplay:10.37,2013-05-22 08:45:00,
2013-05-22 03:50:00,64.2,57.9,29.48,SSE,168,0.0,3.0,80,0.00,OVC,,0.00,WeatherDisplay:10.37,2013-05-22 08:50:00,
2013-05-22 03:55:00,64.2,57.9,29.48,SSE,158,1.0,3.0,80,0.00,OVC,,0.00,WeatherDisplay:10.37,2013-05-22 08:55:00,
2013-05-22 04:00:00,64.2,57.9,29.48,SSE,164,2.0,4.0,80,0.00,OVC,,0.00,WeatherDisplay:10.37,2013-05-22 09:00:00,
2013-05-22 04:05:00,64.2,57.9,29.47,South,172,3.0,3.0,80,0.00,BKN,,0.00,WeatherDisplay:10.37,2013-05-22 09:05:00,
2013-05-22 04:10:00,64.0,57.7,29.47,South,174,0.0,0.0,80,0.00,BKN,,0.00,WeatherDisplay:10.37,2013-05-22 09:10:00,
2013-05-22 04:15:00,64.0,57.7,29.47,SSE,165,0.0,0.0,80,0.00,BKN,,0.00,WeatherDisplay:10.37,2013-05-22 09:15:00,
2013-05-22 04:20:00,64.0,57.7,29.47,South,170,0.0,0.0,80,0.00,BKN,,0.00,WeatherDisplay:10.37,2013-05-22 09:20:00,
2013-05-22 04:25:00,64.0,58.1,29.47,WNW,282,0.0,0.0,81,0.00,BKN,,0.00,WeatherDisplay:10.37,2013-05-22 09:25:00,
2013-05-22 04:30:00,64.0,58.1,29.47,NNW,334,0.0,0.0,81,0.00,BKN,,0.00,WeatherDisplay:10.37,2013-05-22 09:30:00,
2013-05-22 04:35:00,64.0,58.1,29.47,NNW,346,0.0,0.0,81,0.00,BKN,,0.00,WeatherDisplay:10.37,2013-05-22 09:35:00,
2013-05-22 04:40:00,64.0,58.1,29.47,NE,52,0.0,0.0,81,0.00,BKN,,0.00,WeatherDisplay:10.37,2013-05-22 09:40:00,
2013-05-22 04:45:00,64.0,58.1,29.47,ESE,122,0.0,0.0,81,0.00,BKN,,0.00,WeatherDisplay:10.37,2013-05-22 09:45:00,
2013-05-22 04:50:00,64.0,58.1,29.47,SE,126,0.0,0.0,81,0.00,BKN,,0.00,WeatherDisplay:10.37,2013-05-22 09:50:00,
2013-05-22 04:55:00,64.0,57.7,29.48,ESE,122,0.0,0.0,80,0.00,BKN,,0.00,WeatherDisplay:10.37,2013-05-22 09:55:00,
2013-05-22 05:00:00,64.0,57.7,29.48,SE,124,0.0,0.0,80,0.00,BKN,,0.00,WeatherDisplay:10.37,2013-05-22 10:00:00,
2013-05-22 05:10:00,63.3,57.1,29.48,East,101,0.0,0.0,80,0.00,BKN,,0.00,WeatherDisplay:10.37,2013-05-22 10:10:00,
2013-05-22 05:15:00,63.3,57.0,29.48,SE,139,0.0,4.0,80,0.00,BKN,,0.00,WeatherDisplay:10.37,2013-05-22 10:15:00,
2013-05-22 05:20:00,63.1,56.9,29.48,SSE,166,3.0,5.0,80,0.00,BKN,,0.00,WeatherDisplay:10.37,2013-05-22 10:20:00,
2013-05-22 05:25:00,63.1,57.2,29.49,SSE,162,2.0,5.0,81,0.00,BKN,,0.00,WeatherDisplay:10.37,2013-05-22 10:25:00,
2013-05-22 05:30:00,63.0,57.0,29.48,SSE,155,0.0,3.0,81,0.00,BKN,,0.00,WeatherDisplay:10.37,2013-05-22 10:30:00,
2013-05-22 05:35:00,62.8,56.9,29.48,SE,146,0.0,0.0,81,0.00,BKN,,0.00,WeatherDisplay:10.37,2013-05-22 10:35:00,
2013-05-22 05:40:00,63.0,57.4,29.48,SSE,153,0.0,0.0,82,0.00,BKN,,0.00,WeatherDisplay:10.37,2013-05-22 10:40:00,
2013-05-22 05:45:00,63.0,57.4,29.48,SSE,162,0.0,0.0,82,0.00,BKN,,0.00,WeatherDisplay:10.37,2013-05-22 10:45:00,
2013-05-22 05:50:00,62.9,57.3,29.48,SSE,162,0.0,0.0,82,0.00,-RA,,0.00,WeatherDisplay:10.37,2013-05-22 10:50:00,
2013-05-22 05:55:00,63.0,57.4,29.47,SSE,159,0.0,0.0,82,0.02,-RA,,0.02,WeatherDisplay:10.37,2013-05-22 10:55:00,
2013-05-22 06:00:00,63.1,57.6,29.47,SSE,158,0.0,0.0,82,0.02,-RA,,0.04,WeatherDisplay:10.37,2013-05-22 11:00:00,
2013-05-22 06:05:00,63.0,57.4,29.47,SSE,156,0.0,0.0,82,0.00,-RA,,0.04,WeatherDisplay:10.37,2013-05-22 11:05:00,
2013-05-22 06:10:00,63.1,57.9,29.47,SE,138,0.0,0.0,83,0.00,-RA,,0.04,WeatherDisplay:10.37,2013-05-22 11:10:00,
2013-05-22 06:15:00,63.0,57.7,29.47,SE,124,0.0,0.0,83,0.00,-RA,,0.04,WeatherDisplay:10.37,2013-05-22 11:15:00,
2013-05-22 06:20:00,62.9,57.6,29.46,ESE,111,0.0,0.0,83,0.02,-RA,,0.06,WeatherDisplay:10.37,2013-05-22 11:20:00,
2013-05-22 06:25:00,62.6,57.4,29.46,ESE,118,0.0,0.0,83,0.00,-RA,,0.06,WeatherDisplay:10.37,2013-05-22 11:25:00,
2013-05-22 06:30:00,62.4,57.2,29.46,SE,131,0.0,1.0,83,0.00,-RA,,0.06,WeatherDisplay:10.37,2013-05-22 11:30:00,
2013-05-22 06:35:00,62.3,57.1,29.46,East,99,0.0,0.0,83,0.00,-RA,,0.06,WeatherDisplay:10.37,2013-05-22 11:35:00,
2013-05-22 06:40:00,62.2,57.0,29.47,East,100,0.0,0.0,83,0.00,-RA,,0.06,WeatherDisplay:10.37,2013-05-22 11:40:00,
2013-05-22 06:45:00,61.9,56.7,29.48,ESE,120,0.0,0.0,83,0.02,-RA,,0.08,WeatherDisplay:10.37,2013-05-22 11:45:00,
2013-05-22 06:50:00,61.9,56.7,29.48,SE,130,0.0,0.0,83,0.00,-RA,,0.08,WeatherDisplay:10.37,2013-05-22 11:50:00,
2013-05-22 06:55:00,61.5,56.3,29.48,SE,128,2.0,4.0,83,0.00,-RA,,0.08,WeatherDisplay:10.37,2013-05-22 11:55:00,
2013-05-22 07:00:00,61.3,56.1,29.48,ESE,122,2.0,3.0,83,0.00,-RA,,0.08,WeatherDisplay:10.37,2013-05-22 12:00:00,
2013-05-22 07:05:00,61.1,55.9,29.48,SE,126,0.0,1.0,83,0.00,-RA,,0.08,WeatherDisplay:10.37,2013-05-22 12:05:00,
2013-05-22 07:10:00,61.0,55.8,29.47,SE,146,0.0,0.0,83,0.00,-RA,,0.08,WeatherDisplay:10.37,2013-05-22 12:10:00,
2013-05-22 07:15:00,61.0,55.8,29.47,SE,142,0.0,0.0,83,0.02,-RA,,0.10,WeatherDisplay:10.37,2013-05-22 12:15:00,
2013-05-22 07:20:00,60.8,55.6,29.47,SE,145,0.0,0.0,83,0.00,-RA,,0.10,WeatherDisplay:10.37,2013-05-22 12:20:00,
2013-05-22 07:25:00,60.6,55.8,29.47,SSE,148,0.0,0.0,84,0.02,-RA,,0.12,WeatherDisplay:10.37,2013-05-22 12:25:00,
2013-05-22 07:30:00,60.6,55.8,29.47,SSE,148,0.0,0.0,84,0.00,-RA,,0.12,WeatherDisplay:10.37,2013-05-22 12:30:00,
2013-05-22 07:35:00,60.6,55.8,29.46,SSE,155,0.0,0.0,84,0.00,-RA,,0.12,WeatherDisplay:10.37,2013-05-22 12:35:00,
2013-05-22 07:40:00,60.6,55.8,29.46,SSE,149,0.0,0.0,84,0.00,-RA,,0.12,WeatherDisplay:10.37,2013-05-22 12:40:00,
2013-05-22 07:45:00,60.6,55.8,29.46,SE,145,0.0,0.0,84,0.00,-RA,,0.12,WeatherDisplay:10.37,2013-05-22 12:45:00,
2013-05-22 07:50:00,60.6,55.8,29.46,SE,140,0.0,0.0,84,0.02,-RA,,0.14,WeatherDisplay:10.37,2013-05-22 12:50:00,
2013-05-22 08:00:00,60.6,55.8,29.46,SE,140,0.0,0.0,84,0.00,-RA,,0.14,WeatherDisplay:10.37,2013-05-22 13:00:00,
2013-05-22 08:05:00,60.6,55.8,29.46,SE,130,0.0,0.0,84,0.00,-RA,,0.14,WeatherDisplay:10.37,2013-05-22 13:05:00,
2013-05-22 08:10:00,60.6,55.8,29.45,SE,135,0.0,0.0,84,0.00,-RA,,0.14,WeatherDisplay:10.37,2013-05-22 13:10:00,
2013-05-22 08:15:00,60.6,55.8,29.45,SSE,150,2.0,2.0,84,0.00,-RA,,0.14,WeatherDisplay:10.37,2013-05-22 13:15:00,
2013-05-22 08:20:00,60.5,55.7,29.45,SSE,148,0.0,2.0,84,0.00,-RA,,0.14,WeatherDisplay:10.37,2013-05-22 13:20:00,
2013-05-22 08:25:00,60.4,55.6,29.45,SE,146,1.0,2.0,84,0.00,-RA,,0.14,WeatherDisplay:10.37,2013-05-22 13:25:00,
2013-05-22 08:30:00,60.6,55.8,29.46,SSE,157,0.0,0.0,84,0.00,-RA,,0.14,WeatherDisplay:10.37,2013-05-22 13:30:00,
2013-05-22 08:35:00,60.6,55.8,29.46,SSE,153,0.0,0.0,84,0.00,-RA,,0.14,WeatherDisplay:10.37,2013-05-22 13:35:00,
2013-05-22 08:40:00,60.6,55.8,29.46,SSE,153,0.0,0.0,84,0.00,-RA,,0.14,WeatherDisplay:10.37,2013-05-22 13:40:00,
2013-05-22 08:45:00,61.0,56.4,29.46,SSE,163,0.0,0.0,85,0.00,-RA,,0.14,WeatherDisplay:10.37,2013-05-22 13:45:00,
2013-05-22 08:50:00,61.1,56.5,29.46,South,172,0.0,0.0,85,0.00,-RA,,0.14,WeatherDisplay:10.37,2013-05-22 13:50:00,
2013-05-22 08:55:00,61.3,56.8,29.45,SSE,165,0.0,0.0,85,0.00,-RA,,0.14,WeatherDisplay:10.37,2013-05-22 13:55:00,
2013-05-22 09:00:00,61.3,56.8,29.46,SSE,163,0.0,0.0,85,0.02,-RA,,0.16,WeatherDisplay:10.37,2013-05-22 14:00:00,
2013-05-22 09:05:00,61.6,57.4,29.45,SSE,166,1.0,2.0,86,0.00,-RA,,0.16,WeatherDisplay:10.37,2013-05-22 14:05:00,
2013-05-22 09:10:00,61.9,57.6,29.45,SSE,157,1.0,2.0,86,0.00,-RA,,0.16,WeatherDisplay:10.37,2013-05-22 14:10:00,
2013-05-22 09:15:00,62.2,58.0,29.45,SSE,155,0.0,2.0,86,0.00,-RA,,0.16,WeatherDisplay:10.37,2013-05-22 14:15:00,
2013-05-22 09:20:00,62.4,58.2,29.45,SSE,155,0.0,0.0,86,0.00,-RA,,0.16,WeatherDisplay:10.37,2013-05-22 14:20:00,
2013-05-22 09:25:00,62.6,58.3,29.45,SE,143,0.0,0.0,86,0.00,-RA,,0.16,WeatherDisplay:10.37,2013-05-22 14:25:00,
2013-05-22 09:30:00,62.8,58.5,29.45,SE,135,0.0,0.0,86,0.00,-RA,,0.16,WeatherDisplay:10.37,2013-05-22 14:30:00,
2013-05-22 09:35:00,63.0,58.7,29.45,SE,135,0.0,0.0,86,0.00,OVC,,0.16,WeatherDisplay:10.37,2013-05-22 14:35:00,
2013-05-22 09:40:00,63.1,58.9,29.45,SSE,155,0.0,0.0,86,0.00,OVC,,0.16,WeatherDisplay:10.37,2013-05-22 14:40:00,
2013-05-22 09:45:00,63.3,59.1,29.45,South,177,0.0,0.0,86,0.00,OVC,,0.16,WeatherDisplay:10.37,2013-05-22 14:45:00,
2013-05-22 09:50:00,63.6,59.3,29.45,South,180,0.0,0.0,86,0.00,OVC,,0.16,WeatherDisplay:10.37,2013-05-22 14:50:00,
2013-05-22 09:55:00,63.7,59.5,29.45,South,180,0.0,0.0,86,0.00,OVC,,0.16,WeatherDisplay:10.37,2013-05-22 14:55:00,
2013-05-22 10:00:00,64.0,59.8,29.45,South,180,0.0,0.0,86,0.00,OVC,,0.16,WeatherDisplay:10.37,2013-05-22 15:00:00,
2013-05-22 10:05:00,64.2,59.9,29.45,SSW,204,0.0,0.0,86,0.00,-RA,,0.16,WeatherDisplay:10.37,2013-05-22 15:05:00,
2013-05-22 10:10:00,64.6,60.6,29.45,WSW,240,0.0,0.0,87,0.00,-RA,,0.16,WeatherDisplay:10.37,2013-05-22 15:10:00,
2013-05-22 10:15:00,64.8,60.8,29.45,WSW,248,0.0,0.0,87,0.00,-RA,,0.16,WeatherDisplay:10.37,2013-05-22 15:15:00,
2013-05-22 10:20:00,64.9,61.0,29.45,WSW,248,0.0,0.0,87,0.02,-RA,,0.18,WeatherDisplay:10.37,2013-05-22 15:20:00,
2013-05-22 10:25:00,65.3,61.3,29.45,WSW,248,0.0,0.0,87,0.00,-RA,,0.18,WeatherDisplay:10.37,2013-05-22 15:25:00,
2013-05-22 10:30:00,65.5,61.5,29.45,WSW,248,0.0,0.0,87,0.00,-RA,,0.18,WeatherDisplay:10.37,2013-05-22 15:30:00,
2013-05-22 10:35:00,65.9,61.9,29.45,WSW,248,0.0,0.0,87,0.00,-RA,,0.18,WeatherDisplay:10.37,2013-05-22 15:35:00,
2013-05-22 10:40:00,66.0,61.7,29.45,NE,44,1.0,2.0,86,0.00,-RA,,0.18,WeatherDisplay:10.37,2013-05-22 15:40:00,
2013-05-22 10:45:00,66.0,61.7,29.45,ENE,77,0.0,0.0,86,0.00,-RA,,0.18,WeatherDisplay:10.37,2013-05-22 15:45:00,
2013-05-22 10:50:00,66.0,61.7,29.45,ESE,110,0.0,0.0,86,0.00,-RA,,0.18,WeatherDisplay:10.37,2013-05-22 15:50:00,
2013-05-22 11:00:00,66.0,61.0,29.45,East,85,0.0,3.0,84,0.00,-RA,,0.18,WeatherDisplay:10.37,2013-05-22 16:00:00,
2013-05-22 11:05:00,65.8,60.5,29.45,ENE,63,0.0,2.0,83,0.00,-RA,,0.18,WeatherDisplay:10.37,2013-05-22 16:05:00,
2013-05-22 11:10:00,65.8,60.5,29.46,ENE,58,1.0,3.0,83,0.00,-RA,,0.18,WeatherDisplay:10.37,2013-05-22 16:10:00,
2013-05-22 11:15:00,65.6,60.3,29.46,East,92,0.0,0.0,83,0.00,-RA,,0.18,WeatherDisplay:10.37,2013-05-22 16:15:00,
2013-05-22 11:20:00,64.9,58.9,29.46,SE,125,2.0,3.0,81,0.00,OVC,,0.18,WeatherDisplay:10.37,2013-05-22 16:20:00,
2013-05-22 11:25:00,64.2,57.9,29.46,ESE,107,0.0,0.0,80,0.00,OVC,,0.18,WeatherDisplay:10.37,2013-05-22 16:25:00,
2013-05-22 11:30:00,64.0,57.7,29.46,ENE,64,2.0,4.0,80,0.00,OVC,,0.18,WeatherDisplay:10.37,2013-05-22 16:30:00,
2013-05-22 11:35:00,63.4,57.1,29.46,NE,56,2.0,3.0,80,0.00,OVC,,0.18,WeatherDisplay:10.37,2013-05-22 16:35:00,
2013-05-22 11:40:00,63.3,57.0,29.46,ENE,57,0.0,0.0,80,0.00,OVC,,0.18,WeatherDisplay:10.37,2013-05-22 16:40:00,
2013-05-22 11:45:00,63.1,57.2,29.46,NE,45,2.0,3.0,81,0.00,OVC,,0.18,WeatherDisplay:10.37,2013-05-22 16:45:00,
2013-05-22 11:50:00,63.0,57.1,29.46,NE,51,5.0,5.0,81,0.00,OVC,,0.18,WeatherDisplay:10.37,2013-05-22 16:50:00,
2013-05-22 11:55:00,62.8,56.5,29.46,ENE,59,0.0,3.0,80,0.00,OVC,,0.18,WeatherDisplay:10.37,2013-05-22 16:55:00,
2013-05-22 12:00:00,62.4,56.5,29.46,NE,56,0.0,0.0,81,0.00,OVC,,0.18,WeatherDisplay:10.37,2013-05-22 17:00:00,
2013-05-22 12:05:00,62.4,56.9,29.46,NE,41,0.0,0.0,82,0.00,OVC,,0.18,WeatherDisplay:10.37,2013-05-22 17:05:00,
2013-05-22 12:10:00,62.4,56.9,29.47,NE,49,0.0,0.0,82,0.00,OVC,,0.18,WeatherDisplay:10.37,2013-05-22 17:10:00,
2013-05-22 12:15:00,62.2,56.7,29.46,NE,53,0.0,0.0,82,0.00,OVC,,0.18,WeatherDisplay:10.37,2013-05-22 17:15:00,
2013-05-22 12:20:00,62.2,56.7,29.46,NE,51,1.0,2.0,82,0.00,OVC,,0.18,WeatherDisplay:10.37,2013-05-22 17:20:00,
2013-05-22 12:25:00,62.2,56.7,29.46,NNE,19,1.0,3.0,82,0.00,OVC,,0.18,WeatherDisplay:10.37,2013-05-22 17:25:00,
2013-05-22 12:30:00,61.8,56.3,29.45,NE,36,1.0,4.0,82,0.00,OVC,,0.18,WeatherDisplay:10.37,2013-05-22 17:30:00,
2013-05-22 12:35:00,61.4,55.9,29.46,NNE,21,8.0,9.0,82,0.00,OVC,,0.18,WeatherDisplay:10.37,2013-05-22 17:35:00,
2013-05-22 12:40:00,60.6,54.8,29.46,North,354,8.0,8.0,81,0.00,OVC,,0.18,WeatherDisplay:10.37,2013-05-22 17:40:00,
2013-05-22 12:45:00,59.9,54.1,29.46,North,355,3.0,7.0,81,0.00,OVC,,0.18,WeatherDisplay:10.37,2013-05-22 17:45:00,
2013-05-22 12:50:00,59.4,53.5,29.47,North,350,2.0,5.0,81,0.00,OVC,,0.18,WeatherDisplay:10.37,2013-05-22 17:50:00,
2013-05-22 12:55:00,59.0,53.5,29.47,North,3,2.0,5.0,82,0.00,OVC,,0.18,WeatherDisplay:10.37,2013-05-22 17:55:00,
2013-05-22 13:00:00,58.2,52.8,29.47,NNE,26,5.0,9.0,82,0.00,OVC,,0.18,WeatherDisplay:10.37,2013-05-22 18:00:00,
2013-05-22 13:05:00,57.6,52.1,29.47,NNE,12,3.0,9.0,82,0.00,OVC,,0.18,WeatherDisplay:10.37,2013-05-22 18:05:00,
2013-05-22 13:10:00,57.0,51.6,29.48,North,359,5.0,7.0,82,0.00,OVC,,0.18,WeatherDisplay:10.37,2013-05-22 18:10:00,
2013-05-22 13:15:00,56.7,51.3,29.49,North,5,3.0,7.0,82,0.00,OVC,,0.18,WeatherDisplay:10.37,2013-05-22 18:15:00,
2013-05-22 13:20:00,56.3,50.9,29.49,NNE,24,3.0,5.0,82,0.04,RA,,0.22,WeatherDisplay:10.37,2013-05-22 18:20:00,
2013-05-22 13:30:00,55.6,50.5,29.50,NNE,17,3.0,6.0,83,0.00,RA,,0.26,WeatherDisplay:10.37,2013-05-22 18:30:00,
2013-05-22 13:35:00,55.3,50.2,29.51,NNE,25,2.0,6.0,83,0.16,RA,,0.43,WeatherDisplay:10.37,2013-05-22 18:35:00,
2013-05-22 13:40:00,54.7,49.6,29.50,NNE,32,1.0,6.0,83,0.26,RA,,0.69,WeatherDisplay:10.37,2013-05-22 18:40:00,
2013-05-22 13:45:00,54.3,49.3,29.51,NNE,19,2.0,3.0,83,0.67,RA,,1.36,WeatherDisplay:10.37,2013-05-22 18:45:00,
2013-05-22 13:50:00,54.0,49.3,29.51,NNW,339,2.0,4.0,84,0.00,RA,,1.36,WeatherDisplay:10.37,2013-05-22 18:50:00,
2013-05-22 13:55:00,53.9,49.1,29.51,NNW,347,2.0,4.0,84,0.08,RA,,1.43,WeatherDisplay:10.37,2013-05-22 18:55:00,
2013-05-22 14:00:00,53.4,48.7,29.51,NNE,15,7.0,9.0,84,0.04,RA,,1.48,WeatherDisplay:10.37,2013-05-22 19:00:00,
2013-05-22 14:05:00,53.2,48.5,29.50,NNE,21,3.0,6.0,84,0.28,RA,,1.75,WeatherDisplay:10.37,2013-05-22 19:05:00,
2013-05-22 14:10:00,53.2,48.8,29.51,NNE,21,3.0,5.0,85,0.02,RA,,1.77,WeatherDisplay:10.37,2013-05-22 19:10:00,
2013-05-22 14:15:00,53.1,48.7,29.50,North,11,3.0,5.0,85,0.04,RA,,1.82,WeatherDisplay:10.37,2013-05-22 19:15:00,
2013-05-22 14:20:00,53.1,48.7,29.50,North,351,5.0,5.0,85,0.00,RA,,1.82,WeatherDisplay:10.37,2013-05-22 19:20:00,
2013-05-22 14:25:00,53.2,48.8,29.50,NNW,347,2.0,5.0,85,0.02,RA,,1.84,WeatherDisplay:10.37,2013-05-22 19:25:00,
2013-05-22 14:30:00,53.2,49.2,29.49,NNW,342,3.0,5.0,86,0.00,RA,,1.84,WeatherDisplay:10.37,2013-05-22 19:30:00,
2013-05-22 14:35:00,53.2,49.2,29.48,North,349,3.0,6.0,86,0.26,-RA,,2.09,WeatherDisplay:10.37,2013-05-22 19:35:00,
2013-05-22 14:45:00,53.2,49.2,29.48,North,7,3.0,7.0,86,0.00,-RA,,2.09,WeatherDisplay:10.37,2013-05-22 19:45:00,
2013-05-22 14:50:00,53.4,49.3,29.49,North,351,2.0,6.0,86,0.00,-RA,,2.09,WeatherDisplay:10.37,2013-05-22 19:50:00,
2013-05-22 15:00:00,54.0,49.9,29.49,NNW,331,1.0,6.0,86,0.00,-RA,,2.09,WeatherDisplay:10.37,2013-05-22 20:00:00,
2013-05-22 15:05:00,54.3,50.2,29.49,North,3,1.0,6.0,86,0.00,-RA,,2.09,WeatherDisplay:10.37,2013-05-22 20:05:00,
2013-05-22 15:10:00,54.3,50.2,29.48,NE,35,2.0,4.0,86,0.02,-RA,,2.11,WeatherDisplay:10.37,2013-05-22 20:10:00,
2013-05-22 15:15:00,54.5,50.4,29.48,NE,35,1.0,2.0,86,0.00,-RA,,2.11,WeatherDisplay:10.37,2013-05-22 20:15:00,
2013-05-22 15:20:00,54.8,50.7,29.49,NNW,346,2.0,3.0,86,0.00,-RA,,2.11,WeatherDisplay:10.37,2013-05-22 20:20:00,
2013-05-22 15:25:00,55.0,50.9,29.48,North,354,2.0,3.0,86,0.00,-RA,,2.11,WeatherDisplay:10.37,2013-05-22 20:25:00,
2013-05-22 15:30:00,55.2,51.0,29.48,North,351,1.0,4.0,86,0.00,-RA,,2.11,WeatherDisplay:10.37,2013-05-22 20:30:00,
2013-05-22 15:35:00,55.5,51.4,29.49,North,349,3.0,4.0,86,0.00,-RA,,2.11,WeatherDisplay:10.37,2013-05-22 20:35:00,
2013-05-22 15:40:00,55.6,51.5,29.48,NNE,14,9.0,14.0,86,0.00,-RA,,2.11,WeatherDisplay:10.37,2013-05-22 20:40:00,
2013-05-22 15:45:00,55.6,51.5,29.49,North,8,2.0,6.0,86,0.00,-RA,,2.11,WeatherDisplay:10.37,2013-05-22 20:45:00,
2013-05-22 15:50:00,55.9,51.4,29.48,NNW,345,7.0,15.0,85,0.00,-RA,,2.11,WeatherDisplay:10.37,2013-05-22 20:50:00,
2013-05-22 15:55:00,56.3,51.8,29.49,North,357,6.0,15.0,85,0.00,-RA,,2.11,WeatherDisplay:10.37,2013-05-22 20:55:00,
2013-05-22 16:00:00,56.7,52.2,29.49,North,355,8.0,8.0,85,0.00,-RA,,2.11,WeatherDisplay:10.37,2013-05-22 21:00:00,
2013-05-22 16:05:00,56.9,52.1,29.49,NNW,343,5.0,8.0,84,0.00,OVC,,2.11,WeatherDisplay:10.37,2013-05-22 21:05:00,
2013-05-22 16:10:00,56.8,51.7,29.49,North,5,6.0,7.0,83,0.00,OVC,,2.11,WeatherDisplay:10.37,2013-05-22 21:10:00,
2013-05-22 16:15:00,56.9,51.8,29.49,North,5,5.0,7.0,83,0.00,OVC,,2.11,WeatherDisplay:10.37,2013-05-22 21:15:00,
2013-05-22 16:20:00,57.0,51.9,29.49,NNW,340,1.0,5.0,83,0.00,OVC,,2.11,WeatherDisplay:10.37,2013-05-22 21:20:00,
2013-05-22 16:25:00,57.0,51.9,29.49,NNW,347,5.0,6.0,83,0.00,OVC,,2.11,WeatherDisplay:10.37,2013-05-22 21:25:00,
2013-05-22 16:30:00,56.8,51.4,29.49,North,7,3.0,4.0,82,0.00,OVC,,2.11,WeatherDisplay:10.37,2013-05-22 21:30:00,
2013-05-22 16:35:00,56.5,51.1,29.49,NNE,31,1.0,3.0,82,0.00,OVC,,2.11,WeatherDisplay:10.37,2013-05-22 21:35:00,
2013-05-22 16:40:00,56.3,50.9,29.49,NNE,32,7.0,10.0,82,0.00,OVC,,2.11,WeatherDisplay:10.37,2013-05-22 21:40:00,
2013-05-22 16:45:00,55.9,50.5,29.49,NNE,15,3.0,10.0,82,0.00,OVC,,2.11,WeatherDisplay:10.37,2013-05-22 21:45:00,
2013-05-22 16:50:00,55.8,50.3,29.50,North,360,2.0,4.0,82,0.00,OVC,,2.11,WeatherDisplay:10.37,2013-05-22 21:50:00,
2013-05-22 16:55:00,55.6,50.2,29.50,North,350,2.0,4.0,82,0.00,OVC,,2.11,WeatherDisplay:10.37,2013-05-22 21:55:00,
2013-05-22 17:05:00,55.2,49.8,29.50,NNW,343,3.0,4.0,82,0.00,OVC,,2.11,WeatherDisplay:10.37,2013-05-22 22:05:00,
2013-05-22 17:10:00,55.0,50.0,29.50,North,1,1.0,3.0,83,0.00,OVC,,2.11,WeatherDisplay:10.37,2013-05-22 22:10:00,
2013-05-22 17:15:00,54.7,49.6,29.50,North,4,6.0,7.0,83,0.00,OVC,,2.11,WeatherDisplay:10.37,2013-05-22 22:15:00,
2013-05-22 17:20:00,54.5,49.4,29.51,North,1,1.0,7.0,83,0.00,OVC,,2.11,WeatherDisplay:10.37,2013-05-22 22:20:00,
2013-05-22 17:25:00,54.3,49.3,29.50,NNE,15,6.0,7.0,83,0.00,OVC,,2.11,WeatherDisplay:10.37,2013-05-22 22:25:00,
2013-05-22 17:30:00,54.1,49.4,29.51,North,1,1.0,5.0,84,0.00,OVC,,2.11,WeatherDisplay:10.37,2013-05-22 22:30:00,
2013-05-22 17:35:00,54.0,49.2,29.51,North,2,5.0,5.0,84,0.00,-RA,,2.11,WeatherDisplay:10.37,2013-05-22 22:35:00,
2013-05-22 17:40:00,54.0,49.2,29.51,North,6,2.0,5.0,84,0.00,-RA,,2.11,WeatherDisplay:10.37,2013-05-22 22:40:00,
2013-05-22 17:45:00,53.8,49.1,29.51,NNE,17,1.0,5.0,84,0.04,-RA,,2.15,WeatherDisplay:10.37,2013-05-22 22:45:00,
2013-05-22 17:50:00,53.8,49.4,29.50,NNE,29,5.0,7.0,85,0.08,RA,,2.23,WeatherDisplay:10.37,2013-05-22 22:50:00,
2013-05-22 17:55:00,53.8,49.4,29.50,North,0,3.0,7.0,85,0.00,RA,,2.23,WeatherDisplay:10.37,2013-05-22 22:55:00,
2013-05-22 18:00:00,53.7,49.3,29.50,North,359,7.0,8.0,85,0.04,RA,,2.28,WeatherDisplay:10.37,2013-05-22 23:00:00,
2013-05-22 18:05:00,53.4,49.0,29.51,North,9,5.0,8.0,85,0.00,-RA,,2.28,WeatherDisplay:10.37,2013-05-22 23:05:00,
2013-05-22 18:10:00,53.4,49.0,29.51,NNE,19,6.0,6.0,85,0.00,-RA,,2.28,WeatherDisplay:10.37,2013-05-22 23:10:00,
2013-05-22 18:15:00,53.2,49.2,29.52,North,1,1.0,6.0,86,0.00,-RA,,2.28,WeatherDisplay:10.37,2013-05-22 23:15:00,
2013-05-22 18:20:00,53.2,49.2,29.51,NNW,344,2.0,3.0,86,0.00,-RA,,2.28,WeatherDisplay:10.37,2013-05-22 23:20:00,
2013-05-22 18:25:00,53.2,49.5,29.51,North,352,7.0,8.0,87,0.00,-RA,,2.28,WeatherDisplay:10.37,2013-05-22 23:25:00,
2013-05-22 18:30:00,52.9,48.8,29.51,NNE,20,7.0,8.0,86,0.00,-RA,,2.28,WeatherDisplay:10.37,2013-05-22 23:30:00,
2013-05-22 18:35:00,52.8,48.7,29.51,NE,41,1.0,7.0,86,0.00,-RA,,2.28,WeatherDisplay:10.37,2013-05-22 23:35:00,
2013-05-22 18:40:00,52.9,48.8,29.51,NNE,27,5.0,5.0,86,0.00,-RA,,2.28,WeatherDisplay:10.37,2013-05-22 23:40:00,
2013-05-22 18:45:00,53.2,49.5,29.51,North,1,8.0,12.0,87,0.00,-RA,,2.28,WeatherDisplay:10.37,2013-05-22 23:45:00,
2013-05-22 18:50:00,53.2,49.5,29.51,North,5,0.0,7.0,87,0.00,-RA,,2.28,WeatherDisplay:10.37,2013-05-22 23:50:00,
2013-05-22 18:55:00,52.9,49.1,29.51,North,1,6.0,7.0,87,0.00,-RA,,2.28,WeatherDisplay:10.37,2013-05-22 23:55:00,
2013-05-22 19:00:00,52.9,49.1,29.51,NNE,20,7.0,7.0,87,0.00,-RA,,2.28,WeatherDisplay:10.37,2013-05-23 00:00:00,
2013-05-22 19:05:00,52.8,49.0,29.51,NNE,22,3.0,7.0,87,0.00,OVC,,2.28,WeatherDisplay:10.37,2013-05-23 00:05:00,
2013-05-22 19:10:00,52.7,48.9,29.51,NNE,14,8.0,12.0,87,0.00,OVC,,2.28,WeatherDisplay:10.37,2013-05-23 00:10:00,
2013-05-22 19:15:00,52.5,48.7,29.52,NNE,13,13.0,15.0,87,0.00,OVC,,2.28,WeatherDisplay:10.37,2013-05-23 00:15:00,
2013-05-22 19:20:00,52.3,48.6,29.52,North,3,3.0,15.0,87,0.00,OVC,,2.28,WeatherDisplay:10.37,2013-05-23 00:20:00,
2013-05-22 19:25:00,52.3,48.6,29.52,NNW,343,3.0,6.0,87,0.00,OVC,,2.28,WeatherDisplay:10.37,2013-05-23 00:25:00,
2013-05-22 19:30:00,52.3,48.6,29.52,North,352,5.0,6.0,87,0.00,OVC,,2.28,WeatherDisplay:10.37,2013-05-23 00:30:00,
2013-05-22 19:35:00,52.3,48.6,29.53,NNE,23,1.0,6.0,87,0.00,OVC,,2.28,WeatherDisplay:10.37,2013-05-23 00:35:00,
2013-05-22 19:40:00,52.2,48.4,29.53,NNE,28,1.0,2.0,87,0.00,OVC,,2.28,WeatherDisplay:10.37,2013-05-23 00:40:00,
2013-05-22 19:50:00,52.2,48.5,29.53,NNE,22,5.0,7.0,87,0.00,OVC,,2.28,WeatherDisplay:10.37,2013-05-23 00:50:00,
2013-05-22 19:55:00,52.2,48.4,29.53,North,357,5.0,7.0,87,0.00,OVC,,2.28,WeatherDisplay:10.37,2013-05-23 00:55:00,
2013-05-22 20:00:00,52.0,48.2,29.54,NNW,342,3.0,5.0,87,0.00,OVC,,2.28,WeatherDisplay:10.37,2013-05-23 01:00:00,
2013-05-22 20:05:00,51.8,48.1,29.54,North,356,8.0,9.0,87,0.00,OVC,,2.28,WeatherDisplay:10.37,2013-05-23 01:05:00,
2013-05-22 20:10:00,51.6,47.9,29.54,North,9,5.0,5.0,87,0.00,OVC,,2.28,WeatherDisplay:10.37,2013-05-23 01:10:00,
2013-05-22 20:15:00,51.4,47.7,29.55,NNE,14,1.0,7.0,87,0.00,OVC,,2.28,WeatherDisplay:10.37,2013-05-23 01:15:00,
2013-05-22 20:20:00,51.4,47.7,29.55,North,8,0.0,8.0,87,0.00,OVC,,2.28,WeatherDisplay:10.37,2013-05-23 01:20:00,
2013-05-22 20:25:00,51.4,47.7,29.55,NNW,334,5.0,8.0,87,0.00,OVC,,2.28,WeatherDisplay:10.37,2013-05-23 01:25:00,
2013-05-22 20:30:00,51.3,47.5,29.55,NNE,20,3.0,8.0,87,0.00,OVC,,2.28,WeatherDisplay:10.37,2013-05-23 01:30:00,
2013-05-22 20:35:00,51.4,47.6,29.55,NE,35,7.0,8.0,87,0.00,OVC,,2.28,WeatherDisplay:10.37,2013-05-23 01:35:00,
2013-05-22 20:40:00,51.3,47.8,29.55,North,359,3.0,7.0,88,0.00,OVC,,2.28,WeatherDisplay:10.37,2013-05-23 01:40:00,
2013-05-22 20:50:00,51.3,47.8,29.56,NE,45,5.0,10.0,88,0.00,OVC,,2.28,WeatherDisplay:10.37,2013-05-23 01:50:00,
2013-05-22 20:55:00,51.3,47.8,29.56,NE,39,2.0,4.0,88,0.00,OVC,,2.28,WeatherDisplay:10.37,2013-05-23 01:55:00,
2013-05-22 21:00:00,51.3,47.9,29.56,North,6,6.0,13.0,88,0.00,OVC,,2.28,WeatherDisplay:10.37,2013-05-23 02:00:00,
2013-05-22 21:05:00,51.3,47.9,29.56,North,6,5.0,13.0,88,0.00,OVC,,2.28,WeatherDisplay:10.37,2013-05-23 02:05:00,
2013-05-22 21:10:00,51.1,47.6,29.56,North,11,8.0,10.0,88,0.00,OVC,,2.28,WeatherDisplay:10.37,2013-05-23 02:10:00,
2013-05-22 21:15:00,51.3,47.8,29.56,NE,34,5.0,6.0,88,0.00,OVC,,2.28,WeatherDisplay:10.37,2013-05-23 02:15:00,
2013-05-22 21:20:00,51.1,47.6,29.56,NNE,16,5.0,5.0,88,0.00,OVC,,2.28,WeatherDisplay:10.37,2013-05-23 02:20:00,
2013-05-22 21:25:00,51.1,48.0,29.56,North,1,3.0,4.0,89,0.00,OVC,,2.28,WeatherDisplay:10.37,2013-05-23 02:25:00,
2013-05-22 21:30:00,50.9,47.8,29.56,NNE,20,7.0,8.0,89,0.00,OVC,,2.28,WeatherDisplay:10.37,2013-05-23 02:30:00,
2013-05-22 21:35:00,51.1,48.0,29.56,NNE,24,7.0,14.0,89,0.00,OVC,,2.28,WeatherDisplay:10.37,2013-05-23 02:35:00,
2013-05-22 21:40:00,51.1,48.0,29.56,NE,37,7.0,14.0,89,0.00,OVC,,2.28,WeatherDisplay:10.37,2013-05-23 02:40:00,
2013-05-22 21:45:00,51.0,47.9,29.56,NNE,32,6.0,7.0,89,0.00,OVC,,2.28,WeatherDisplay:10.37,2013-05-23 02:45:00,
2013-05-22 21:50:00,51.1,48.0,29.57,North,10,9.0,11.0,89,0.00,OVC,,2.28,WeatherDisplay:10.37,2013-05-23 02:50:00,
2013-05-22 21:55:00,50.9,47.8,29.57,NNE,15,1.0,11.0,89,0.00,OVC,,2.28,WeatherDisplay:10.37,2013-05-23 02:55:00,
2013-05-22 22:00:00,51.1,48.0,29.57,NNE,29,5.0,6.0,89,0.00,OVC,,2.28,WeatherDisplay:10.37,2013-05-23 03:00:00,
2013-05-22 22:05:00,51.1,48.0,29.57,NE,41,3.0,7.0,89,0.00,OVC,,2.28,WeatherDisplay:10.37,2013-05-23 03:05:00,
2013-05-22 22:10:00,50.9,47.8,29.57,NNE,21,2.0,7.0,89,0.00,OVC,,2.28,WeatherDisplay:10.37,2013-05-23 03:10:00,
2013-05-22 22:20:00,50.7,47.6,29.58,NNE,30,6.0,12.0,89,0.00,OVC,,2.28,WeatherDisplay:10.37,2013-05-23 03:20:00,
2013-05-22 22:25:00,50.7,47.6,29.57,NNE,27,1.0,7.0,89,0.00,OVC,,2.28,WeatherDisplay:10.37,2013-05-23 03:25:00,
2013-05-22 22:30:00,50.7,47.5,29.57,North,359,5.0,16.0,89,0.00,OVC,,2.28,WeatherDisplay:10.37,2013-05-23 03:30:00,
2013-05-22 22:35:00,50.5,47.4,29.57,North,358,5.0,9.0,89,0.00,OVC,,2.28,WeatherDisplay:10.37,2013-05-23 03:35:00,
2013-05-22 22:40:00,50.6,47.5,29.58,North,6,7.0,12.0,89,0.00,OVC,,2.28,WeatherDisplay:10.37,2013-05-23 03:40:00,
2013-05-22 22:45:00,50.5,47.4,29.58,NNW,345,5.0,12.0,89,0.00,OVC,,2.28,WeatherDisplay:10.37,2013-05-23 03:45:00,
2013-05-22 22:50:00,50.7,47.5,29.58,NNW,348,6.0,7.0,89,0.00,OVC,,2.28,WeatherDisplay:10.37,2013-05-23 03:50:00,
2013-05-22 22:55:00,50.5,47.4,29.58,North,8,3.0,5.0,89,0.00,OVC,,2.28,WeatherDisplay:10.37,2013-05-23 03:55:00,
2013-05-22 23:00:00,50.5,47.4,29.58,NNE,16,2.0,8.0,89,0.00,OVC,,2.28,WeatherDisplay:10.37,2013-05-23 04:00:00,
2013-05-22 23:05:00,50.5,47.4,29.58,North,10,10.0,16.0,89,0.00,OVC,,2.28,WeatherDisplay:10.37,2013-05-23 04:05:00,
2013-05-22 23:10:00,50.5,47.4,29.58,NNE,13,9.0,16.0,89,0.00,OVC,,2.28,WeatherDisplay:10.37,2013-05-23 04:10:00,
2013-05-22 23:15:00,50.5,47.4,29.58,NNE,12,5.0,7.0,89,0.00,OVC,,2.28,WeatherDisplay:10.37,2013-05-23 04:15:00,
2013-05-22 23:20:00,50.5,47.4,29.58,North,11,3.0,7.0,89,0.00,OVC,,2.28,WeatherDisplay:10.37,2013-05-23 04:20:00,
2013-05-22 23:25:00,50.5,47.4,29.58,NNE,24,9.0,10.0,89,0.00,OVC,,2.28,WeatherDisplay:10.37,2013-05-23 04:25:00,
2013-05-22 23:30:00,50.5,47.4,29.58,NE,36,9.0,11.0,89,0.00,OVC,,2.28,WeatherDisplay:10.37,2013-05-23 04:30:00,
2013-05-22 23:35:00,50.5,47.4,29.58,North,2,2.0,11.0,89,0.00,OVC,,2.28,WeatherDisplay:10.37,2013-05-23 04:35:00,
2013-05-22 23:40:00,50.7,47.6,29.58,NNW,347,2.0,5.0,89,0.00,OVC,,2.28,WeatherDisplay:10.37,2013-05-23 04:40:00,
2013-05-22 23:45:00,50.7,47.6,29.58,NNE,14,5.0,6.0,89,0.00,OVC,,2.28,WeatherDisplay:10.37,2013-05-23 04:45:00,
2013-05-22 23:50:00,50.7,47.6,29.58,North,5,3.0,6.0,89,0.00,OVC,,2.28,WeatherDisplay:10.37,2013-05-23 04:50:00,
2013-05-22 23:55:00,50.7,47.6,29.58,NNE,13,3.0,5.0,89,0.00,OVC,,2.28,WeatherDisplay:10.37,2013-05-23 04:55:00,